This is the latest recevied weather packets stored in our database for station/object JH7UAX-10. If no packets are shown the sender has not sent any weather packets the latest 10 day(s).
| Time | Temp. | Humidity | Pressure | Rain* | Wind** | Luminosity | Snow |
|---|---|---|---|---|---|---|---|
| 1788300855 | 21.67° C | 98% | 1024.1 hPa | 0 mm | - | - | - |
| 1788299953 | 21.67° C | 98% | 1024.2 hPa | 0 mm | - | - | - |
| 1788299055 | 21.67° C | 98% | 1024.4 hPa | 0 mm | - | - | - |
| 1788297255 | 21.67° C | 98% | 1023.7 hPa | 0 mm | - | - | - |
| 1788296355 | 21.67° C | 98% | 1023.7 hPa | 0 mm | - | - | - |
| 1788294554 | 21.67° C | 98% | 1023.3 hPa | 0.25 mm | - | - | - |
| 1788293655 | 21.67° C | 98% | 1023.4 hPa | 3.56 mm | - | - | - |
| 1788292755 | 21.67° C | 98% | 1023.4 hPa | 5.08 mm | - | - | - |
| 1788291855 | 21.67° C | 98% | 1023.6 hPa | 6.35 mm | - | - | - |
| 1788290954 | 21.11° C | 98% | 1023.4 hPa | 6.6 mm | - | - | - |
| 1788290055 | 21.11° C | 98% | 1023.4 hPa | 6.1 mm | - | - | - |
| 1788289155 | 21.11° C | 98% | 1023.8 hPa | 5.84 mm | - | - | - |
| 1788287353 | 20.56° C | 97% | 1024 hPa | 8.89 mm | - | - | - |
| 1788286453 | 20.56° C | 97% | 1024.5 hPa | 8.89 mm | - | - | - |
| 1788285555 | 20.56° C | 97% | 1024 hPa | 10.16 mm | - | - | - |
| 1788283754 | 20.56° C | 97% | 1024.4 hPa | 11.18 mm | - | - | - |
| 1788282854 | 20.56° C | 97% | 1024.1 hPa | 9.14 mm | - | - | - |
| 1788281955 | 20.56° C | 96% | 1024.8 hPa | 12.45 mm | - | - | - |
| 1788281054 | 20.56° C | 96% | 1024.7 hPa | 9.4 mm | - | - | - |
| 1788280153 | 20.56° C | 96% | 1024.9 hPa | 7.37 mm | - | - | - |
| 1788279253 | 20.56° C | 96% | 1024.5 hPa | 11.94 mm | - | - | - |
| 1788278354 | 20.56° C | 96% | 1024.1 hPa | 6.6 mm | - | - | - |
| 1788277455 | 20° C | 96% | 1023.6 hPa | 6.35 mm | - | - | - |
| 1788276553 | 20° C | 95% | 1024 hPa | 6.6 mm | - | - | - |
| 1788275654 | 20° C | 95% | 1023.7 hPa | 3.81 mm | - | - | - |
* Rain latest hour (hover to see other rain measurements)
** Current wind speed in m/s (hover to see current wind gust speed)